FDX75 LFPG-KMEM

Flight info

Callsign FDX75
Flight time N/A
Altitude 30000
Route LGL UN502 JSY DCT LIZAD DCT LESLU DCT NEBIN/M086F320 NATB BUDAR/N0499F320 DCT ALLEX/N0494F340 DCT AJJAY DCT ENE DCT BEEKN DCT KYLOH DCT BAF DCT BIGGO DCT TRIBS DCT BASYE DCT DBABE DCT BWZ DCT PARKE DCT TOWIN DCT KAYNE DCT HOUTN DCT LRP DCT SAAME/N0499F360 DCT FLIRT DCT HYPER DCT MRB DCT EYTEE DCT COLNS DCT PERKS DCT HVQ DCT SPAYD DCT YOCKY DCT UNCKL DCT RYANS DCT RAMRD BLUZZ5
Aircraft MD11/H-SDE1E2E3FGHIJ2J3J4J5M1RWXY/LB1D1

Departure

Time 2026-04-30 12:14
Airport Charles de Gaulle International Airport (LFPG)

Arrival

Time N/A
Airport Memphis International Airport (KMEM)
Time Latitude Longitude Altitude Speed Heading
2026-04-30 11:41 49.00005 2.54199 362 ft 0 kts 355°
2026-04-30 12:05 49.00004 2.54199 362 ft 0 kts 355°
2026-04-30 12:06 48.99991 2.54200 363 ft 3 kts 353°
2026-04-30 12:06 48.99978 2.54203 362 ft 3 kts 358°
2026-04-30 12:06 48.99952 2.54202 362 ft 3 kts
2026-04-30 12:06 48.99931 2.54201 362 ft 3 kts
2026-04-30 12:07 48.99911 2.54199 364 ft 2 kts
2026-04-30 12:07 48.99904 2.54198 365 ft 0 kts
2026-04-30 12:09 48.99909 2.54200 362 ft 0 kts 11°
2026-04-30 12:09 48.99915 2.54204 362 ft 2 kts 19°
2026-04-30 12:10 48.99922 2.54218 368 ft 2 kts 57°
2026-04-30 12:10 48.99920 2.54240 368 ft 2 kts 104°
2026-04-30 12:10 48.99911 2.54247 367 ft 2 kts 149°
2026-04-30 12:10 48.99890 2.54248 366 ft 5 kts 178°
2026-04-30 12:11 48.99852 2.54263 367 ft 6 kts 149°
2026-04-30 12:11 48.99839 2.54324 363 ft 7 kts 93°
2026-04-30 12:11 48.99841 2.54412 362 ft 9 kts 86°
2026-04-30 12:11 48.99845 2.54522 368 ft 12 kts 86°
2026-04-30 12:12 48.99851 2.54655 366 ft 14 kts 85°
2026-04-30 12:12 48.99837 2.54795 366 ft 14 kts 126°
2026-04-30 12:12 48.99754 2.54872 369 ft 15 kts 138°
2026-04-30 12:12 48.99698 2.55009 366 ft 16 kts 116°
2026-04-30 12:13 48.99647 2.55174 363 ft 18 kts 114°
2026-04-30 12:13 48.99588 2.55365 365 ft 23 kts 105°
2026-04-30 12:13 48.99603 2.55891 361 ft 83 kts 85°
2026-04-30 12:13 48.99667 2.57093 361 ft 143 kts 85°
2026-04-30 12:14 48.99757 2.58824 369 ft 181 kts 85°
2026-04-30 12:14 48.99869 2.60795 754 ft 187 kts 85°
2026-04-30 12:14 48.99981 2.62747 1477 ft 188 kts 86°
2026-04-30 12:14 49.00085 2.64725 2106 ft 187 kts 87°
2026-04-30 12:15 49.00189 2.66709 2796 ft 188 kts 87°
2026-04-30 12:15 49.00294 2.68712 3308 ft 192 kts 88°
2026-04-30 12:15 49.00399 2.70814 3572 ft 209 kts 89°
2026-04-30 12:15 49.00514 2.73105 3741 ft 226 kts 89°
2026-04-30 12:16 49.00638 2.75602 3872 ft 246 kts 89°
2026-04-30 12:16 49.00774 2.78287 4014 ft 262 kts 88°
2026-04-30 12:16 49.00923 2.81129 4230 ft 275 kts 86°
2026-04-30 12:16 49.01315 2.84039 4629 ft 292 kts 71°
2026-04-30 12:17 49.04300 2.88227 6032 ft 315 kts 16°
2026-04-30 12:17 49.06525 2.88296 6651 ft 328 kts 349°
2026-04-30 12:17 49.08699 2.87131 7262 ft 336 kts 337°
2026-04-30 12:18 49.10802 2.85525 7975 ft 337 kts 334°
2026-04-30 12:18 49.12903 2.83842 8633 ft 342 kts 334°
2026-04-30 12:18 49.15014 2.82195 9446 ft 342 kts 335°
2026-04-30 12:18 49.17169 2.80570 9997 ft 348 kts 335°
2026-04-30 12:19 49.19408 2.78930 10212 ft 367 kts 336°
2026-04-30 12:19 49.21764 2.77238 10567 ft 377 kts 336°
2026-04-30 12:19 49.24116 2.75562 11166 ft 380 kts 336°
2026-04-30 12:19 49.26516 2.73860 11824 ft 380 kts 336°
2026-04-30 12:20 49.28940 2.72145 12283 ft 386 kts 338°
2026-04-30 12:20 49.31391 2.70414 12824 ft 391 kts 338°
2026-04-30 12:20 49.33867 2.68665 13389 ft 392 kts 336°
2026-04-30 12:20 49.36354 2.66905 13919 ft 395 kts 336°
2026-04-30 12:21 49.38854 2.65133 14442 ft 397 kts 337°
2026-04-30 12:21 49.41376 2.63344 14901 ft 400 kts 336°
2026-04-30 12:21 49.43916 2.61540 15341 ft 404 kts 337°
2026-04-30 12:21 49.46474 2.59722 15829 ft 405 kts 337°
2026-04-30 12:22 49.49041 2.57894 16255 ft 408 kts 336°
2026-04-30 12:22 49.51592 2.56077 16689 ft 411 kts 337°
2026-04-30 12:22 49.54199 2.54217 17102 ft 414 kts 337°
2026-04-30 12:22 49.56822 2.52344 17488 ft 417 kts 337°
2026-04-30 12:23 49.59462 2.50456 17916 ft 419 kts 336°
2026-04-30 12:23 49.62115 2.48557 18340 ft 421 kts 336°
2026-04-30 12:23 49.64778 2.46648 18675 ft 425 kts 337°
2026-04-30 12:23 49.67472 2.44715 19020 ft 427 kts 337°
2026-04-30 12:24 49.70170 2.42777 19384 ft 428 kts 336°
2026-04-30 12:24 49.72876 2.40830 19715 ft 430 kts 336°
2026-04-30 12:24 49.75593 2.38879 20037 ft 432 kts 338°
2026-04-30 12:24 49.78361 2.37049 20381 ft 433 kts 340°
2026-04-30 12:25 49.81175 2.35345 20704 ft 435 kts 341°
2026-04-30 12:25 49.84009 2.33699 21036 ft 436 kts 342°
2026-04-30 12:25 49.86865 2.32062 21375 ft 438 kts 342°
2026-04-30 12:25 49.89731 2.30418 21699 ft 440 kts 342°
2026-04-30 12:26 49.92611 2.28759 22033 ft 442 kts 342°
2026-04-30 12:26 49.95501 2.27085 22379 ft 445 kts 342°
2026-04-30 12:26 49.98416 2.25390 22621 ft 449 kts 342°
2026-04-30 12:26 50.01313 2.23700 22941 ft 451 kts 342°
2026-04-30 12:27 50.04259 2.21978 23275 ft 453 kts 342°
2026-04-30 12:27 50.07222 2.20243 23630 ft 456 kts 342°
2026-04-30 12:27 50.10199 2.18497 23931 ft 458 kts 342°
2026-04-30 12:27 50.13189 2.16742 24226 ft 460 kts 342°
2026-04-30 12:28 50.16190 2.14977 24530 ft 462 kts 342°
2026-04-30 12:28 50.19205 2.13203 24841 ft 464 kts 342°
2026-04-30 12:28 50.22230 2.11420 25142 ft 466 kts 342°
2026-04-30 12:28 50.25268 2.09627 25436 ft 468 kts 342°
2026-04-30 12:29 50.28324 2.07821 25734 ft 470 kts 342°
2026-04-30 12:29 50.31391 2.06006 26032 ft 472 kts 342°
2026-04-30 12:29 50.34468 2.04147 26319 ft 475 kts 340°
2026-04-30 12:29 50.37467 2.01918 26594 ft 479 kts 332°
2026-04-30 12:30 50.40250 1.99004 26867 ft 483 kts 323°
2026-04-30 12:30 50.42843 1.95634 27174 ft 486 kts 320°
2026-04-30 12:30 50.45355 1.92076 27436 ft 488 kts 318°
2026-04-30 12:30 50.47862 1.88458 27718 ft 490 kts 319°
2026-04-30 12:31 50.50386 1.84848 28003 ft 492 kts 319°
2026-04-30 12:31 50.52915 1.81288 28194 ft 495 kts 319°
2026-04-30 12:31 50.55497 1.77699 28461 ft 497 kts 319°
2026-04-30 12:31 50.58103 1.74104 28739 ft 499 kts 319°
2026-04-30 12:32 50.60733 1.70486 28993 ft 501 kts 319°
2026-04-30 12:32 50.63360 1.66871 29247 ft 503 kts 319°
2026-04-30 12:32 50.65994 1.63234 29536 ft 504 kts 319°
2026-04-30 12:32 50.68634 1.59570 29783 ft 506 kts 319°
2026-04-30 12:33 50.71282 1.55887 30018 ft 508 kts 319°
2026-04-30 12:33 50.73956 1.52224 30186 ft 510 kts 321°
2026-04-30 12:33 50.79540 1.45165 30224 ft 516 kts 323°
2026-04-30 12:34 50.85253 1.38213 30225 ft 521 kts 323°
2026-04-30 12:34 50.91005 1.31170 30231 ft 524 kts 322°
2026-04-30 12:35 50.96737 1.24084 30239 ft 526 kts 322°
2026-04-30 12:35 51.02517 1.16902 30237 ft 528 kts 322°
2026-04-30 12:36 51.08304 1.09687 30239 ft 529 kts 322°
2026-04-30 12:36 51.14104 1.02434 30242 ft 529 kts 322°
2026-04-30 12:37 51.19889 0.95178 30238 ft 529 kts 322°
2026-04-30 12:37 51.25684 0.87884 30254 ft 532 kts 322°
2026-04-30 12:38 51.31502 0.80539 30250 ft 533 kts 322°
2026-04-30 12:38 51.37319 0.73170 30254 ft 532 kts 322°
2026-04-30 12:39 51.43067 0.65812 30262 ft 532 kts 321°
2026-04-30 12:39 51.48845 0.58392 30265 ft 532 kts 321°
2026-04-30 12:40 51.54631 0.50976 30265 ft 532 kts 322°
2026-04-30 12:40 51.60425 0.43540 30264 ft 533 kts 321°
2026-04-30 12:41 51.66220 0.36059 30250 ft 534 kts 321°
2026-04-30 12:41 51.71921 0.28381 30247 ft 534 kts 320°
2026-04-30 12:42 51.77600 0.20625 30266 ft 534 kts 320°
2026-04-30 12:42 51.83281 0.12892 30268 ft 534 kts 320°
2026-04-30 12:43 51.88962 0.05162 30267 ft 533 kts 320°
2026-04-30 12:43 51.94603 -0.02533 30253 ft 534 kts 319°
2026-04-30 12:44 52.00296 -0.10331 30247 ft 536 kts 319°
2026-04-30 12:44 52.05996 -0.18165 30232 ft 537 kts 319°
2026-04-30 12:45 52.11684 -0.26011 30242 ft 536 kts 319°
2026-04-30 12:45 52.17366 -0.33876 30237 ft 536 kts 319°
2026-04-30 12:46 52.23040 -0.41757 30234 ft 536 kts 319°
2026-04-30 12:46 52.28700 -0.49664 30226 ft 535 kts 319°
2026-04-30 12:47 52.34293 -0.57561 30238 ft 533 kts 319°
2026-04-30 12:47 52.39919 -0.65489 30247 ft 533 kts 319°
2026-04-30 12:48 52.45550 -0.73422 30247 ft 533 kts 319°
2026-04-30 12:48 52.51176 -0.81370 30253 ft 533 kts 319°
2026-04-30 12:49 52.56789 -0.89329 30242 ft 532 kts 318°
2026-04-30 12:49 52.62356 -0.97253 30186 ft 532 kts 318°
2026-04-30 12:50 52.67958 -1.05256 30171 ft 534 kts 318°
2026-04-30 12:50 52.73577 -1.13309 30264 ft 536 kts 318°
2026-04-30 12:51 52.79197 -1.21394 30265 ft 534 kts 318°
2026-04-30 12:51 52.84793 -1.29472 30271 ft 534 kts 317°
2026-04-30 12:52 52.90376 -1.37568 30268 ft 534 kts 317°
2026-04-30 12:52 52.95939 -1.45734 30261 ft 534 kts 317°
2026-04-30 12:53 53.00563 -1.52521 30273 ft 534 kts 317°
2026-04-30 12:53 53.07059 -1.62041 30255 ft 536 kts 317°
2026-04-30 12:54 53.11714 -1.68877 30232 ft 536 kts 317°
2026-04-30 12:54 53.17301 -1.77110 30254 ft 536 kts 317°
2026-04-30 12:55 53.22962 -1.85193 30244 ft 536 kts 323°
2026-04-30 12:55 53.29297 -1.91821 30242 ft 537 kts 330°
2026-04-30 12:56 53.35872 -1.97804 30241 ft 537 kts 331°
2026-04-30 12:56 53.42370 -2.03821 30242 ft 537 kts 330°
2026-04-30 12:57 53.48873 -2.10051 30242 ft 539 kts 328°
2026-04-30 12:57 53.55019 -2.17226 30241 ft 538 kts 317°
2026-04-30 12:58 53.60125 -2.26343 30242 ft 533 kts 303°
2026-04-30 12:58 53.63906 -2.37004 30230 ft 527 kts 291°
2026-04-30 12:59 53.66639 -2.48432 30231 ft 525 kts 286°
2026-04-30 12:59 53.69135 -2.60000 30252 ft 525 kts 286°
2026-04-30 13:00 53.71667 -2.71513 30211 ft 528 kts 286°
2026-04-30 13:00 53.74268 -2.83128 30211 ft 529 kts 286°
2026-04-30 13:01 53.76872 -2.94758 30211 ft 529 kts 286°
2026-04-30 13:01 53.79463 -3.06407 30211 ft 529 kts 286°
2026-04-30 13:02 53.82036 -3.18057 30221 ft 529 kts 286°
2026-04-30 13:02 53.84602 -3.29746 30209 ft 529 kts 286°
2026-04-30 13:03 53.87160 -3.41463 30203 ft 529 kts 286°
2026-04-30 13:03 53.90143 -3.52901 30204 ft 534 kts 295°
2026-04-30 13:04 53.93915 -3.63797 30198 ft 536 kts 298°
2026-04-30 13:04 53.97770 -3.74494 30199 ft 531 kts 297°
2026-04-30 13:05 54.01549 -3.85261 30200 ft 530 kts 297°
2026-04-30 13:06 54.07129 -4.01505 30200 ft 530 kts 296°
2026-04-30 13:06 54.10832 -4.12355 30209 ft 529 kts 296°
2026-04-30 13:07 54.14527 -4.23217 30212 ft 529 kts 296°
2026-04-30 13:07 54.18182 -4.33997 30206 ft 521 kts 297°
2026-04-30 13:08 54.21795 -4.44710 30205 ft 519 kts 296°
2026-04-30 13:08 54.25370 -4.55357 30203 ft 519 kts 296°
2026-04-30 13:09 54.28958 -4.66091 30208 ft 519 kts 296°
2026-04-30 13:09 54.32505 -4.76869 30200 ft 519 kts 296°
2026-04-30 13:10 54.36040 -4.87673 30205 ft 518 kts 297°
2026-04-30 13:10 54.39581 -4.98441 30194 ft 518 kts 297°
2026-04-30 13:11 54.43130 -5.09239 30195 ft 520 kts 296°
2026-04-30 13:11 54.46677 -5.20079 30200 ft 520 kts 296°
2026-04-30 13:12 54.50190 -5.30865 30200 ft 520 kts 296°
2026-04-30 13:12 54.53719 -5.41753 30208 ft 521 kts 296°
2026-04-30 13:13 54.59005 -5.58172 30202 ft 522 kts 296°
2026-04-30 13:14 54.64083 -5.74789 30210 ft 522 kts 294°
2026-04-30 13:14 54.69106 -5.91423 30212 ft 522 kts 294°
2026-04-30 13:15 54.74153 -6.08142 30186 ft 522 kts 294°
2026-04-30 13:16 54.77505 -6.19306 30184 ft 522 kts 294°
2026-04-30 13:16 54.80848 -6.30500 30186 ft 522 kts 294°
2026-04-30 13:17 54.85814 -6.47225 30190 ft 522 kts 294°
2026-04-30 13:18 54.90774 -6.64051 30180 ft 520 kts 294°
2026-04-30 13:18 54.95701 -6.80884 30162 ft 520 kts 294°
2026-04-30 13:19 54.98948 -6.92151 30160 ft 520 kts 293°
2026-04-30 13:19 55.02142 -7.03363 30157 ft 520 kts 293°
2026-04-30 13:20 55.05377 -7.14654 30171 ft 520 kts 294°
2026-04-30 13:20 55.08611 -7.25928 30161 ft 519 kts 294°
2026-04-30 13:21 55.11836 -7.37220 30162 ft 519 kts 294°
2026-04-30 13:22 55.16632 -7.54125 30155 ft 519 kts 293°
2026-04-30 13:22 55.21419 -7.71127 30152 ft 519 kts 293°
2026-04-30 13:23 55.26184 -7.88172 30162 ft 518 kts 293°
2026-04-30 13:24 55.32464 -8.10835 30152 ft 517 kts 292°
2026-04-30 13:25 55.38640 -8.33647 30168 ft 517 kts 291°
2026-04-30 13:26 55.46368 -8.62194 30156 ft 516 kts 291°
2026-04-30 13:28 55.54007 -8.90694 30161 ft 514 kts 291°
2026-04-30 13:28 55.58573 -9.07909 30163 ft 516 kts 291°
2026-04-30 13:29 55.64616 -9.30893 30165 ft 517 kts 290°
2026-04-30 13:31 55.72084 -9.59848 30185 ft 517 kts 290°
2026-04-30 13:32 55.79522 -9.89026 30167 ft 519 kts 290°
2026-04-30 13:33 55.85511 -10.12298 30171 ft 519 kts 291°
2026-04-30 13:34 55.90100 -10.29817 30163 ft 520 kts 290°
2026-04-30 13:35 55.96179 -10.53240 30162 ft 520 kts 290°
2026-04-30 13:36 56.02184 -10.76641 30160 ft 520 kts 290°
2026-04-30 13:36 56.06683 -10.94334 30165 ft 521 kts 290°
2026-04-30 13:37 56.11149 -11.12029 30160 ft 516 kts 289°
2026-04-30 13:38 56.15555 -11.29635 30158 ft 516 kts 289°
2026-04-30 13:39 56.21309 -11.53222 30174 ft 515 kts 289°
2026-04-30 13:40 56.25644 -11.70928 30160 ft 516 kts 289°
2026-04-30 13:40 56.28512 -11.82670 30159 ft 515 kts 288°
2026-04-30 13:41 56.31379 -11.94476 30156 ft 513 kts 288°
2026-04-30 13:41 56.34225 -12.06272 30156 ft 513 kts 288°
2026-04-30 13:42 56.37058 -12.18078 30164 ft 513 kts 288°
2026-04-30 13:42 56.41291 -12.35832 30162 ft 513 kts 288°
2026-04-30 13:43 56.44082 -12.47623 30153 ft 513 kts 288°
2026-04-30 13:43 56.46876 -12.59488 30160 ft 513 kts 288°
2026-04-30 13:44 56.49187 -12.69353 30156 ft 511 kts 288°
2026-04-30 13:44 56.51907 -12.81259 30185 ft 511 kts 287°
2026-04-30 13:45 56.56000 -12.99163 30160 ft 514 kts 287°
2026-04-30 13:46 56.58748 -13.11125 30167 ft 513 kts 287°
2026-04-30 13:46 56.61488 -13.23096 30165 ft 513 kts 287°
2026-04-30 13:47 56.64213 -13.35081 30165 ft 513 kts 287°
2026-04-30 13:47 56.66906 -13.46998 30170 ft 513 kts 286°
2026-04-30 13:48 56.69606 -13.59016 30171 ft 514 kts 286°
2026-04-30 13:48 56.72305 -13.71099 30170 ft 514 kts 286°
2026-04-30 13:49 56.74987 -13.83170 30167 ft 514 kts 285°
2026-04-30 13:49 56.77638 -13.95177 30172 ft 513 kts 285°
2026-04-30 13:50 56.80296 -14.07281 30174 ft 513 kts 285°
2026-04-30 13:50 56.84187 -14.25477 30192 ft 511 kts 284°
2026-04-30 13:51 56.86768 -14.37528 30173 ft 508 kts 284°
2026-04-30 13:51 56.89348 -14.49544 30172 ft 507 kts 284°
2026-04-30 13:52 56.91924 -14.61586 30172 ft 507 kts 284°
2026-04-30 13:52 56.94470 -14.73553 30170 ft 507 kts 284°
2026-04-30 13:53 56.97019 -14.85614 30204 ft 507 kts 284°
2026-04-30 13:53 56.99548 -14.97637 30177 ft 504 kts 284°
2026-04-30 13:54 57.02143 -15.09617 30206 ft 505 kts 285°
2026-04-30 13:54 57.04807 -15.21536 30179 ft 503 kts 285°
2026-04-30 13:55 57.07467 -15.33414 30184 ft 503 kts 285°
2026-04-30 13:55 57.10096 -15.45242 30178 ft 503 kts 285°
2026-04-30 13:56 57.12725 -15.57152 30214 ft 503 kts 285°
2026-04-30 13:56 57.15343 -15.69088 30185 ft 503 kts 285°
2026-04-30 13:57 57.17957 -15.81068 30183 ft 503 kts 285°
2026-04-30 13:57 57.20553 -15.93038 30189 ft 501 kts 285°
2026-04-30 13:58 57.24409 -16.10940 30194 ft 500 kts 285°
2026-04-30 13:59 57.26947 -16.22814 30184 ft 500 kts 285°
2026-04-30 13:59 57.29486 -16.34765 30193 ft 498 kts 286°
2026-04-30 14:00 57.31974 -16.46693 30198 ft 497 kts 285°
2026-04-30 14:00 57.35667 -16.64633 30204 ft 496 kts 285°
2026-04-30 14:01 57.38143 -16.76554 30213 ft 493 kts 285°
2026-04-30 14:01 57.40600 -16.88410 30206 ft 492 kts 285°
2026-04-30 14:02 57.43040 -17.00267 30228 ft 492 kts 285°
2026-04-30 14:02 57.45440 -17.11988 30213 ft 487 kts 285°
2026-04-30 14:03 57.47834 -17.23765 30210 ft 487 kts 284°
2026-04-30 14:03 57.50215 -17.35547 30215 ft 487 kts 284°
2026-04-30 14:04 57.52584 -17.47339 30222 ft 487 kts 284°
2026-04-30 14:04 57.54945 -17.59153 30223 ft 487 kts 284°
2026-04-30 14:05 57.57292 -17.70970 30227 ft 486 kts 284°
2026-04-30 14:05 57.59623 -17.82788 30226 ft 485 kts 286°
2026-04-30 14:06 57.63023 -18.00552 30230 ft 484 kts 285°
2026-04-30 14:07 57.66442 -18.18312 30230 ft 485 kts 286°
2026-04-30 14:08 57.69848 -18.36009 30248 ft 484 kts 287°
2026-04-30 14:08 57.73236 -18.53789 30234 ft 481 kts 290°
2026-04-30 14:09 57.75471 -18.65596 30235 ft 481 kts 290°
2026-04-30 14:10 57.78800 -18.83322 30231 ft 481 kts 290°
2026-04-30 14:10 57.81005 -18.95161 30233 ft 481 kts 290°
2026-04-30 14:11 57.83187 -19.06948 30236 ft 481 kts 290°
2026-04-30 14:11 57.85370 -19.18814 30236 ft 481 kts 289°
2026-04-30 14:12 57.87536 -19.30676 30240 ft 478 kts 290°
2026-04-30 14:12 57.89631 -19.42535 30237 ft 478 kts 289°
2026-04-30 14:13 57.91729 -19.54390 30239 ft 478 kts 289°
2026-04-30 14:13 57.93846 -19.66245 30243 ft 478 kts 289°
2026-04-30 14:14 57.95963 -19.78116 30242 ft 478 kts 289°
2026-04-30 14:14 57.98067 -19.89988 30239 ft 478 kts 289°
2026-04-30 14:15 57.99893 -20.02019 30244 ft 475 kts 281°
2026-04-30 14:15 58.00604 -20.14313 30250 ft 474 kts 280°
2026-04-30 14:16 58.01769 -20.26507 30246 ft 472 kts 282°
2026-04-30 14:16 58.02988 -20.38692 30248 ft 472 kts 282°
2026-04-30 14:17 58.04105 -20.50919 30249 ft 472 kts 281°
2026-04-30 14:17 58.05163 -20.63096 30246 ft 472 kts 281°
2026-04-30 14:18 58.06207 -20.75338 30242 ft 472 kts 281°
2026-04-30 14:18 58.07758 -20.93733 30246 ft 472 kts 281°
2026-04-30 14:19 58.09276 -21.12054 30247 ft 472 kts 281°
2026-04-30 14:20 58.10278 -21.24323 30245 ft 472 kts 281°
2026-04-30 14:20 58.11749 -21.42642 30242 ft 467 kts 281°
2026-04-30 14:21 58.12711 -21.54797 30244 ft 467 kts 281°
2026-04-30 14:22 58.14066 -21.73044 30248 ft 467 kts 281°
2026-04-30 14:22 58.15418 -21.91314 30248 ft 467 kts 281°
2026-04-30 14:23 58.17236 -22.15670 30240 ft 466 kts 281°
2026-04-30 14:24 58.18566 -22.33895 30244 ft 465 kts 281°
2026-04-30 14:25 58.20284 -22.58034 30242 ft 461 kts 281°
2026-04-30 14:26 58.21541 -22.76119 30240 ft 461 kts 280°
2026-04-30 14:27 58.22765 -22.94124 30234 ft 457 kts 281°
2026-04-30 14:27 58.23560 -23.06004 30235 ft 457 kts 280°
2026-04-30 14:28 58.24700 -23.23985 30241 ft 457 kts 279°
2026-04-30 14:28 58.25419 -23.35985 30241 ft 457 kts 280°
2026-04-30 14:29 58.26784 -23.57947 30229 ft 454 kts 280°
2026-04-30 14:31 58.28702 -23.89410 30231 ft 449 kts 280°
2026-04-30 14:31 58.29747 -24.07120 30230 ft 449 kts 280°
2026-04-30 14:32 58.30652 -24.22848 30206 ft 449 kts 280°
2026-04-30 14:33 58.31424 -24.36533 30228 ft 447 kts 279°
2026-04-30 14:33 58.32293 -24.52259 30230 ft 447 kts 279°
2026-04-30 14:34 58.32926 -24.63941 30227 ft 447 kts 279°
2026-04-30 14:34 58.33540 -24.75713 30227 ft 447 kts 279°
2026-04-30 14:35 58.34370 -24.93290 30222 ft 443 kts 279°
2026-04-30 14:36 58.34947 -25.04944 30222 ft 441 kts 279°
2026-04-30 14:36 58.35526 -25.16555 30224 ft 441 kts 279°
2026-04-30 14:37 58.36098 -25.28184 30213 ft 441 kts 279°
2026-04-30 14:37 58.36657 -25.39807 30219 ft 441 kts 278°
2026-04-30 14:38 58.37203 -25.51377 30219 ft 441 kts 278°
2026-04-30 14:38 58.37741 -25.63004 30219 ft 441 kts 278°
2026-04-30 14:39 58.38269 -25.74650 30209 ft 440 kts 278°
2026-04-30 14:39 58.38785 -25.86268 30214 ft 439 kts 278°
2026-04-30 14:40 58.39537 -26.03641 30214 ft 436 kts 278°
2026-04-30 14:40 58.40019 -26.15091 30211 ft 435 kts 277°
2026-04-30 14:41 58.40494 -26.26610 30208 ft 435 kts 277°
2026-04-30 14:41 58.40920 -26.38123 30208 ft 435 kts 277°
2026-04-30 14:42 58.41321 -26.49657 30205 ft 435 kts 277°
2026-04-30 14:42 58.41746 -26.61190 30211 ft 435 kts 277°
2026-04-30 14:43 58.42177 -26.72707 30200 ft 435 kts 277°
2026-04-30 14:43 58.42598 -26.84159 30203 ft 435 kts 277°
2026-04-30 14:44 58.43011 -26.95683 30203 ft 435 kts 277°
2026-04-30 14:44 58.43413 -27.07210 30203 ft 435 kts 277°
2026-04-30 14:45 58.43805 -27.18725 30200 ft 432 kts 276°
2026-04-30 14:45 58.44182 -27.30161 30195 ft 431 kts 276°
2026-04-30 14:46 58.44550 -27.41579 30197 ft 431 kts 276°
2026-04-30 14:46 58.44905 -27.52925 30195 ft 431 kts 276°
2026-04-30 14:47 58.45252 -27.64352 30184 ft 431 kts 276°
2026-04-30 14:47 58.45589 -27.75776 30186 ft 431 kts 276°
2026-04-30 14:48 58.45916 -27.87211 30174 ft 430 kts 275°
2026-04-30 14:48 58.46180 -27.98642 30183 ft 430 kts 275°
2026-04-30 14:49 58.46438 -28.10003 30181 ft 430 kts 275°
2026-04-30 14:49 58.46720 -28.21426 30182 ft 430 kts 275°
2026-04-30 14:50 58.47144 -28.38551 30177 ft 430 kts 275°
2026-04-30 14:51 58.47547 -28.55679 30180 ft 430 kts 275°
2026-04-30 14:52 58.47925 -28.72782 30170 ft 429 kts 275°
2026-04-30 14:52 58.48279 -28.89825 30171 ft 429 kts 275°
2026-04-30 14:53 58.48612 -29.06928 30170 ft 429 kts 275°
2026-04-30 14:54 58.49020 -29.29751 30176 ft 429 kts 274°
2026-04-30 14:55 58.49299 -29.46871 30172 ft 429 kts 274°
2026-04-30 14:56 58.49533 -29.69559 30164 ft 425 kts 273°
2026-04-30 14:57 58.49745 -29.86505 30172 ft 425 kts 274°
2026-04-30 14:58 58.49824 -30.09040 30158 ft 426 kts 271°
2026-04-30 14:58 58.49605 -30.26054 30158 ft 427 kts 271°
2026-04-30 15:00 58.49234 -30.54410 30151 ft 427 kts 271°
2026-04-30 15:01 58.48899 -30.77097 30146 ft 427 kts 271°
2026-04-30 15:01 58.48624 -30.93939 30159 ft 422 kts 270°
2026-04-30 15:02 58.48430 -31.05159 30154 ft 422 kts 270°
2026-04-30 15:03 58.47901 -31.33138 30160 ft 422 kts 270°
2026-04-30 15:04 58.47288 -31.61196 30143 ft 423 kts 269°
2026-04-30 15:06 58.46542 -31.89268 30152 ft 423 kts 270°
2026-04-30 15:07 58.45974 -32.11719 30162 ft 422 kts 269°
2026-04-30 15:08 58.45375 -32.33885 30149 ft 419 kts 269°
2026-04-30 15:09 58.44568 -32.61717 30149 ft 419 kts 269°
2026-04-30 15:10 58.43882 -32.83887 30149 ft 419 kts 269°
2026-04-30 15:11 58.42764 -33.17364 30138 ft 422 kts 268°
2026-04-30 15:13 58.41670 -33.45243 30138 ft 419 kts 268°
2026-04-30 15:14 58.40192 -33.83944 30139 ft 419 kts 268°
2026-04-30 15:17 58.38117 -34.33745 30132 ft 420 kts 267°
2026-04-30 15:19 58.36078 -34.78102 30133 ft 418 kts 266°
2026-04-30 17:39 52.20366 -63.00860 32125 ft 474 kts 229°
2026-04-30 17:42 51.98787 -63.41485 32117 ft 477 kts 228°
2026-04-30 17:43 51.87837 -63.61740 32110 ft 478 kts 229°
2026-04-30 17:44 51.74683 -63.86018 32111 ft 479 kts 228°
2026-04-30 17:46 51.63728 -64.06063 32310 ft 476 kts 227°
2026-04-30 17:47 51.54997 -64.21915 33277 ft 473 kts 228°
2026-04-30 17:48 51.46267 -64.37669 34084 ft 470 kts 227°
2026-04-30 17:48 51.39727 -64.49286 34109 ft 470 kts 227°
2026-04-30 17:50 51.22178 -64.80479 34120 ft 472 kts 226°
2026-04-30 17:52 51.08973 -65.03730 34104 ft 471 kts 227°
2026-04-30 17:54 50.89106 -65.38289 34090 ft 471 kts 225°
2026-04-30 17:56 50.72070 -65.67431 34087 ft 470 kts 226°
2026-04-30 17:58 50.58761 -65.90072 34091 ft 469 kts 224°
2026-04-30 18:00 50.40980 -66.20001 34075 ft 468 kts 226°
2026-04-30 18:01 50.29846 -66.38500 34074 ft 464 kts 224°
2026-04-30 18:02 50.19488 -66.55566 34074 ft 464 kts 225°
2026-04-30 18:04 50.03248 -66.82223 34058 ft 462 kts 224°
2026-04-30 18:06 49.85523 -67.10993 34037 ft 459 kts 224°
2026-04-30 18:08 49.70010 -67.35809 34031 ft 458 kts 224°
2026-04-30 18:10 49.52297 -67.63924 33996 ft 457 kts 224°
2026-04-30 18:11 49.36783 -67.88325 33971 ft 456 kts 223°